Regional Weather Roundup
Issued by NWS Cleveland, OH

Home | Current Version | Previous Version | Text Only | Print | Product List | Glossary Off
Versions: 1 2 3 4 5 6 7 8 9 10 11 12 13 14 15 16 17 18 19 20 21 22 23 24 25 26 27 28 29 30 31 32 33 34 35 36 37 38 39 40 41 42 43 44 45 46 47 48 49 50

163
ASUS41 KCLE 130202
RWRCLE
OHIO REGIONAL WEATHER ROUNDUP
NATIONAL WEATHER SERVICE CLEVELAND, OH
900 PM EST FRI FEB 12 2016

NOTE: "FAIR" INDICATES FEW OR NO CLOUDS BELOW 12,000 FEET WITH NO
SIGNIFICANT WEATHER AND/OR OBSTRUCTIONS TO VISIBILITY.

OHZ001>008-015>018-024>027-034-035-043-044-130300-
   NORTHWEST OHIO

CITY           SKY/WX    TMP DP  RH WIND       PRES   REMARKS
DEFIANCE       CLOUDY    17   8  67 NW16G22   30.18R WCI   2
FINDLAY        PTCLDY    16   7  67 NW16      30.14R WCI   1
TOLEDO EXPRESS PTCLDY    15   7  70 W10       30.14R WCI   2
TOLEDO EXEC    PTCLDY    17   8  67 W13       30.14R WCI   4
LIMA           CLEAR     16   9  74 NW20      30.15R WCI  -1
$$

OHZ009>014-019>023-028>033-038-089-130300-
   NORTHEAST OHIO

CITY           SKY/WX    TMP DP  RH WIND       PRES   REMARKS
CLE-HOPKINS    LGT SNOW  19   8  62 NW21      30.05R BLWGSNOWWCI   3
CLE-LAKEFRONT  CLOUDY    22  10  60 NW26G39   30.02R WCI   5
CUY CO. ARPT   FLURRIES  21  10  63 NW21G31   30.00R WCI   6
LORAIN-ELYRIA  LGT SNOW  19   6  57 NW20G30   30.05R WCI   3
ASHTABULA      CLOUDY    19   5  54 NW16G28   29.96R WCI   4
AKRON-CANTON   FLURRIES  17  10  74 W17       29.98R WCI   1
WOOSTER        CLEAR     16   8  71 NW18G26   30.03R WCI   0
MANSFIELD      CLEAR     15   7  70 W10G20    30.04R WCI   2
YOUNGSTOWN     LGT SNOW  18  14  84 NW13      29.94R WCI   5
$$

OHZ042-051>053-060>062-070>072-077>081-130300-
  SOUTHWEST OHIO

CITY           SKY/WX    TMP DP  RH WIND       PRES   REMARKS
CINC-COVINGTON MOCLDY    22  11  62 W16       30.22R WCI   8
CINC-LUNKEN    CLOUDY    24  12  60 NW17G23   30.26R WCI  11
HAMILTON       PTCLDY    22  11  62 NW12      30.24R WCI  10
DAYTON         CLOUDY    18   8  65 NW14      30.19R WCI   4
WRIGHT-PAT AFB MOCLDY    20   7  57 NW14G21   30.18R WCI   6
DAYTON GENERAL LGT SNOW  19  13  77 NW16G29   30.19R VSB 3/4 WCI   4
WILMINGTON     LGT SNOW  19  14  81 NW20G28   30.16R WCI   3
$$

OHZ036-037-039>041-045>050-054>059-063>069-073>076-082>088-130300-
  CENTRAL AND SOUTHEAST OHIO

CITY           SKY/WX    TMP DP  RH WIND       PRES   REMARKS
COLUMBUS       FLURRIES  18   7  62 NW15G25   30.13R WCI   4
OSU AIRPORT    MOCLDY    18   8  65 W17G25    30.13R WCI   3
BOLTON FIELD   NOT AVBL
RICKENBACK AFB NOT AVBL
NEWARK         PTCLDY    19   8  62 NW16      30.10R WCI   4
MARION         CLOUDY    17   8  67 NW18G29   30.11R WCI   1
LANCASTER      PTCLDY    20   8  60 NW12G25   30.12R WCI   8
ZANESVILLE     MIX PCPN  22  10  60 NW25G33   30.07R WCI   5
NEW PHILLY     CLOUDY    20  10  65 W13G22    30.04R WCI   7
$$




USA.gov is the U.S. government's official web portal to all federal, state and local government web resources and services.